Location: Minneapolis
(45.0000°N, 93.0000°W)
Time: 10:10:35

Envisat - Pass Details

Date: 08 March 2018
Orbit: 764 x 766 km, 98.2° (Epoch: 23 March)

Event Time Altitude Azimuth Distance (km) Brightness Sun altitude
Rises 20:16:37 0° 188° (S) 3,216 6.1 -23.1°
Reaches altitude 10° 20:19:05 10° 197° (SSW) 2,294 5.4 -23.5°
Maximum altitude 20:23:43 36° 263° (W) 1,198 4.4 -24.3°
Drops below altitude 10° 20:28:24 10° 330° (NNW) 2,310 6.1 -25.1°
Sets 20:30:54 0° 339° (NNW) 3,240 6.8 -25.5°
